Tracking 21605 objects as of 26-Oct-2020
HD Live streaming from Space Station
objects crossing your sky now

COSMOS 1375

Track COSMOS 1375 now!
10-day predictions
COSMOS 1375 is classified as:


NORAD ID: 13259
Int'l Code: 1982-055A
Perigee: 949.7 km
Apogee: 969.8 km
Inclination: 65.8 °
Period: 104.1 minutes
Semi major axis: 7330 km
RCS: 0.955 m2 (medium)
Launch date: June 6, 1982
Source: Commonwealth of Independent States (former USSR) (CIS)
Launch site: PLESETSK MISSILE AND SPACE COMPLEX (PKMTR)
aabbcc
Your satellite tracking list
Your tracking list is empty




NASA's NSSDC Master Catalog

Two Line Element Set (TLE):
1 13259U 82055A   20300.58966935 +.00000029 +00000-0 +10173-3 0  9992
2 13259 065.8314 170.1379 0013766 137.4492 222.7644 13.83182928929147
Source of the keplerian elements: AFSPC